Flock 4h-11

operational
NORAD ID: 66714 Int'l Des: 2025-276 Owner: PLAN Country: US Constellation: planet
NOTLE

About Flock 4h-11

Description loading...

Live Position

Loading 3D Globe...

Upcoming Passes

Altitude History

Altitude vs Time

uPlot chart will show altitude changes over time

Two-Line Element Set

1 66714U 25276BA 26014.17122264 .00004488 00000-0 22216-3 0 9994
2 66714 97.4386 90.3967 0003337 175.6455 184.4809 15.18292201 7042
Epoch: Jan 14, 2026 • Age: 14 hours

Current Status

Altitude 527.5 km
Velocity 7.60 km/s
Sub-Earth Point -38.09°S, 69.95°E
Launch Date Nov 28, 2025
Age 0.1 years
Type earth observation

Technical Details

Classification Payload
Mass 5.70 kg
Dry Mass 5.70 kg
Total Mass 5.70 kg
Length 0.30 m
Diameter 0.10 m
Span 0.30 m
Shape Box+2 pan
Manufacturer PLAN
Bus Type Cubesat 3U
Phase Status In Orbit
Owner/State PLAN/US

Large Constellations

Loading constellations...